GFSNE_prec_cloud_057.txt.gz
Cloud_Cover
26 87 100 100 100 100 100 98 100 100 100 95 100 19 96 74 100 12 100 100 68 6 94 100 100 100 100 100 100 100 94 99 97 5 5 6 18 57
95 100 100 100 100 100 100 99 100 100 100 76 100 100 100 100 100 79 65 5 7 81 64 68 93 100 100 100 100 67 99 5 5 20 5 63 30 100
100 100 100 88 100 100 100 100 100 100 100 99 100 100 100 100 99 40 76 40 7 51 84 100 100 88 96 99 49 78 99 95 62 100 5 5 45 100
100 100 100 100 100 100 100 100 100 100 100 77 100 100 100 96 91 100 100 84 100 100 100 78 100 76 13 12 5 75 22 47 100 6 34 59 10 100
100 100 100 100 100 100 100 100 97 100 100 100 100 88 100 100 98 62 82 100 100 100 100 100 60 68 98 30 75 37 43 19 64 29 5 5 5 5
100 100 100 100 100 100 100 100 100 100 100 99 100 97 100 93 100 70 75 78 99 96 98 99 97 100 100 77 100 99 100 99 16 5 5 5 5 5
100 100 100 100 100 100 100 100 100 100 100 100 100 100 100 100 82 65 100 100 100 100 100 100 100 100 100 100 100 100 100 100 85 53 5 82 5 5
100 100 100 100 100 100 100 100 100 100 100 100 100 100 98 98 84 98 93 94 85 99 99 100 100 98 100 100 100 100 100 55 5 5 5 29 5 5
100 100 100 100 100 100 100 100 100 100 100 100 100 100 98 92 75 100 72 83 98 96 40 5 49 100 100 100 100 100 92 5 5 5 5 6 57 100
100 100 100 100 100 100 100 100 100 100 100 100 100 99 98 99 98 70 90 96 49 99 96 14 100 100 100 100 100 74 6 13 10 5 11 58 100 100
100 100 100 100 100 100 100 100 100 100 100 100 100 100 100 100 85 88 87 21 6 90 100 13 100 100 100 100 80 84 68 13 27 9 36 61 100 100
100 100 100 100 100 100 100 100 100 100 100 100 100 100 100 100 100 82 67 84 55 51 100 68 100 100 89 85 100 65 33 32 59 28 100 100 100 100
100 100 100 100 100 100 100 100 100 100 100 100 100 100 100 100 100 100 76 33 47 99 100 100 100 98 100 90 75 96 84 75 100 87 61 17 98 100
100 100 100 100 100 100 100 100 100 100 100 100 100 100 100 100 100 100 100 91 100 100 100 100 100 100 100 100 100 99 93 100 100 100 85 9 47 92
100 100 100 100 100 100 100 100 100 100 100 100 100 100 100 100 100 100 100 100 100 100 100 100 100 100 100 100 100 88 100 91 100 75 78 48 5 7
100 100 100 100 100 100 100 100 100 100 100 100 100 100 100 100 100 100 100 100 100 100 100 100 100 100 100 100 100 97 99 100 95 87 72 14 5 5
100 100 100 100 100 100 100 100 100 100 100 100 100 100 100 100 100 100 100 100 100 100 100 100 100 100 100 100 100 100 100 100 100 98 8 14 5 18
100 100 100 100 100 100 100 100 100 100 100 100 100 100 100 100 100 100 100 100 100 100 100 100 100 100 93 92 100 100 100 100 100 99 100 52 70 91
100 100 100 100 100 100 100 100 100 100 100 100 100 100 100 100 100 100 100 100 100 100 100 23 85 100 100 100 100 100 100 100 100 100 97 91 83 99
100 100 100 100 100 100 100 100 100 100 100 100 100 100 100 100 100 100 100 100 100 74 13 5 93 100 100 100 100 98 100 100 100 100 100 5 11 6
100 100 100 100 100 100 100 100 100 100 100 100 100 100 100 100 100 100 100 100 100 100 99 58 83 99 100 100 100 100 100 100 100 91 62 6 100 100
100 100 100 100 100 100 100 100 100 100 100 100 100 100 100 100 100 100 100 100 100 100 100 100 100 100 100 100 100 100 100 100 100 100 80 18 97 100
100 100 100 100 100 100 100 100 100 100 100 100 100 100 100 100 100 100 100 100 100 100 100 100 100 100 100 100 100 100 100 100 100 100 82 95 89 65

GFSNE_prec_cloud_063.txt.gz
Cloud_Cover
100 100 100 100 100 100 100 100 100 100 100 100 91 100 100 99 100 100 100 100 76 39 65 58 76 10 5 5 53 78 100 88 85 22 87 79 100 100
100 100 100 100 100 100 100 99 100 97 67 96 100 100 100 100 100 57 100 100 100 78 100 92 5 5 20 17 35 99 100 100 32 71 75 100 99 78
100 100 100 100 100 100 92 85 100 99 92 92 100 100 100 100 100 100 100 100 100 100 100 27 91 67 33 100 100 97 100 81 100 63 100 75 6 89
100 100 100 100 81 98 96 100 100 100 100 100 100 100 100 100 100 100 100 100 100 100 100 100 100 100 100 100 100 100 99 100 100 83 99 100 98 97
92 93 88 78 70 97 98 99 100 100 100 100 100 100 100 100 100 100 100 100 100 100 100 100 100 100 100 100 99 100 99 100 92 100 100 100 100 80
86 96 48 45 72 100 100 100 100 100 100 100 100 100 100 100 100 100 100 100 100 100 96 100 100 100 92 100 100 100 100 100 97 96 100 61 37 5
25 53 51 93 100 99 100 100 89 100 100 100 100 100 100 100 100 100 100 100 100 100 99 100 100 100 100 100 100 100 100 100 100 74 100 100 23 5
10 82 100 86 84 97 100 100 100 100 100 100 100 100 100 100 100 100 100 100 100 100 100 100 100 100 100 100 100 100 100 100 100 100 100 95 41 7
41 26 52 66 96 100 100 100 100 100 100 100 100 100 100 100 100 100 100 100 100 100 100 100 100 100 100 100 100 100 100 100 100 100 100 100 100 84
32 60 99 100 100 100 100 100 100 100 100 100 100 100 100 100 100 100 100 100 100 100 100 100 100 100 100 100 100 100 100 100 100 100 100 100 62 89
100 100 100 100 100 100 100 100 100 100 100 100 100 100 100 100 100 100 100 100 100 100 100 100 100 100 100 100 100 100 100 100 100 100 100 99 100 100
100 100 100 100 100 100 100 100 100 100 100 100 100 100 100 100 100 100 100 100 100 100 100 100 100 100 100 100 100 100 100 100 100 100 100 100 100 99
100 100 100 100 100 100 100 100 100 100 100 100 100 100 100 100 100 100 100 100 100 100 100 100 100 100 100 100 100 100 100 100 100 100 100 100 100 32
100 100 100 100 100 100 100 100 100 100 100 100 100 100 100 100 100 100 100 100 100 100 100 100 88 100 99 81 100 100 100 100 100 100 100 79 89 10
100 100 100 100 100 100 100 100 100 100 100 100 100 100 100 100 100 100 100 100 100 100 100 100 100 100 100 100 100 100 100 100 100 100 100 86 71 36
100 100 100 100 100 100 100 100 100 100 100 100 100 100 100 100 100 100 100 100 100 100 100 100 100 100 100 100 97 100 100 100 100 76 90 100 98 100
100 100 100 100 100 100 100 100 100 100 100 100 100 100 100 100 100 100 100 100 100 100 100 100 100 100 100 97 100 100 97 74 6 3 86 38 100 100
100 100 100 100 100 100 100 100 100 100 100 100 100 100 100 100 100 100 100 100 100 100 100 100 100 100 100 97 62 6 23 84 89 92 93 99 92 100
100 100 100 100 100 100 100 100 100 100 100 100 100 100 100 100 100 100 100 100 100 100 100 100 100 100 100 25 14 89 100 99 41 9 78 100 94 100
100 100 100 100 100 100 100 100 100 100 100 100 100 100 100 100 100 100 100 100 100 100 100 100 100 100 100 100 96 52 2 0 6 55 80 100 100 100
100 100 100 100 100 100 100 100 100 100 100 100 100 100 100 100 100 100 100 100 100 100 100 100 100 100 71 22 16 9 21 80 95 98 78 100 100 100
100 100 100 100 100 100 100 100 100 100 100 100 100 100 100 100 100 100 100 100 100 100 100 100 100 100 100 100 100 92 50 69 68 33 99 100 100 100
100 100 100 100 100 100 100 100 100 100 100 100 100 100 100 100 100 100 100 100 100 100 100 100 100 100 100 100 100 100 98 63 87 90 89 100 100 100

GFSNE_prec_cloud_069.txt.gz
Cloud_Cover
100 100 100 100 100 100 100 100 100 100 100 100 100 100 100 100 100 100 100 100 100 100 100 100 100 100 100 100 100 100 100 100 100 100 95 97 100 100
100 100 100 100 100 100 100 98 90 100 100 100 100 100 100 100 100 100 100 98 80 100 100 100 100 100 100 100 100 100 100 100 100 100 100 100 100 100
100 100 100 100 100 100 100 100 100 100 100 100 100 100 100 100 100 100 97 69 93 100 100 100 100 100 100 100 100 100 100 100 100 100 26 100 100 100
100 100 100 100 100 100 100 100 100 100 100 100 100 100 100 100 93 79 76 100 98 100 100 100 100 100 100 100 100 100 100 100 100 100 100 100 64 92
100 100 100 100 100 97 94 74 82 82 78 86 90 100 97 79 91 96 93 74 100 100 100 100 100 100 100 100 100 100 100 100 100 100 100 99 100 100
9 63 78 66 67 55 40 78 96 88 91 51 70 98 100 100 100 100 100 100 100 100 100 100 100 100 100 100 100 100 100 100 100 100 100 100 100 100
24 4 5 12 92 89 100 96 100 99 100 100 100 100 100 100 100 100 100 100 100 100 100 100 100 100 100 100 100 100 100 100 100 100 100 100 100 100
5 2 0 12 23 84 100 100 100 100 100 100 100 100 100 100 100 100 100 100 100 100 100 100 100 100 100 100 100 100 100 100 100 100 100 100 100 100
37 22 8 24 36 47 96 94 89 100 100 100 100 100 100 100 100 100 100 100 100 100 100 100 100 100 100 100 100 100 100 100 100 100 100 100 100 100
100 100 100 100 100 100 100 100 100 100 100 100 100 100 100 100 100 100 100 100 100 100 100 100 100 100 100 100 100 100 100 100 100 100 100 100 100 100
100 100 100 100 100 100 100 100 100 100 100 100 100 100 100 100 100 100 100 100 100 100 100 100 100 100 100 100 100 100 100 100 100 100 100 100 100 100
100 100 100 100 100 100 100 100 100 100 100 100 100 100 100 100 100 100 100 100 100 100 100 100 97 100 100 100 100 100 100 100 100 100 100 100 100 100
100 100 100 100 100 100 100 100 100 100 100 100 100 100 100 100 100 100 100 100 100 100 100 100 99 100 95 97 100 100 100 100 100 100 100 100 100 100
100 100 100 100 100 100 100 100 100 100 100 100 100 100 100 100 100 100 100 100 100 100 100 100 100 100 94 90 94 100 100 100 100 100 100 100 100 96
100 100 100 100 100 100 100 100 100 100 100 100 100 100 100 100 100 100 100 100 100 100 100 100 100 96 100 100 100 100 100 100 100 100 97 100 100 100
100 100 100 100 100 100 100 100 100 100 100 100 100 100 100 100 100 100 100 100 100 100 100 100 100 100 100 100 100 100 100 100 100 99 100 100 97 62
100 100 100 100 100 100 100 100 100 100 100 100 100 100 100 100 99 100 100 100 100 100 100 100 100 100 100 100 100 100 100 100 100 100 72 87 100 100
100 100 100 100 100 100 100 100 100 100 100 100 100 100 100 98 93 100 100 100 100 100 100 100 100 100 100 100 100 100 100 100 100 75 98 96 65 98
100 100 100 100 100 100 100 100 100 100 100 100 100 100 100 99 100 100 100 100 100 100 100 100 100 100 100 100 100 97 92 99 100 100 100 100 9 5
100 100 100 100 100 100 100 100 100 100 100 100 100 99 100 100 100 100 100 100 99 100 100 100 65 98 100 100 100 66 46 32 5 43 83 49 56 26
100 100 100 100 100 100 100 90 100 100 100 100 100 100 100 100 100 100 100 94 91 100 100 82 28 14 20 8 52 58 21 54 42 97 63 35 8 61
100 100 100 100 100 94 90 100 100 100 100 100 99 92 100 100 100 100 98 100 90 79 25 64 5 5 6 90 80 43 5 1 0 1 34 58 51 98
100 100 100 100 100 100 100 100 100 100 100 100 100 100 100 100 100 100 64 53 99 72 23 82 52 5 5 5 5 5 5 5 5 34 6 81 100 95

GFSNE_prec_cloud_072.txt.gz
Cloud_Cover
100 100 100 100 100 100 100 100 100 100 100 100 100 100 99 84 100 100 100 100 100 100 100 100 100 100 100 100 100 100 100 100 100 100 100 100 100 100
100 100 100 100 100 100 100 100 100 100 100 100 100 100 99 94 100 100 100 100 100 100 100 100 100 100 100 100 100 100 100 100 100 100 100 100 100 100
100 100 100 100 100 100 100 100 100 100 100 100 100 100 100 100 100 100 100 100 99 100 100 100 100 100 100 100 100 100 100 100 100 100 100 100 100 100
96 100 100 100 100 100 100 100 100 100 100 100 100 100 100 100 86 22 43 49 97 98 100 100 100 100 100 100 100 100 100 100 100 100 100 100 100 100
100 100 100 100 100 100 100 100 100 100 100 100 100 87 45 5 19 37 100 97 100 91 98 100 100 100 100 100 100 100 100 100 100 100 100 100 100 100
8 17 34 54 80 84 99 98 70 33 36 78 91 55 40 44 32 7 38 55 17 71 89 100 80 100 100 100 100 100 100 100 100 100 100 100 100 100
13 3 0 2 5 5 5 5 5 5 39 82 100 100 100 100 100 94 90 97 100 100 100 100 100 100 100 100 100 100 100 100 100 100 100 100 100 100
58 57 32 6 8 5 5 5 32 97 95 96 100 100 100 100 99 100 100 100 100 100 100 100 100 100 100 100 100 100 100 100 100 100 100 100 100 100
100 100 100 100 100 100 99 98 100 100 100 100 100 99 98 100 100 100 100 99 100 100 100 100 100 100 100 100 100 100 100 100 100 100 100 100 100 100
100 100 100 100 100 100 100 100 96 100 100 92 95 100 100 100 100 100 100 100 100 100 100 100 100 100 100 100 100 100 100 100 100 100 100 100 100 100
100 100 100 98 100 100 100 100 100 100 100 100 100 100 100 100 100 100 100 100 100 100 100 100 100 100 100 100 100 100 100 100 100 100 100 100 100 100
100 100 100 100 100 100 100 100 100 100 100 100 100 100 100 100 100 100 100 100 100 100 100 100 100 100 100 99 100 100 100 100 100 100 99 100 100 100
100 100 100 100 100 100 100 100 100 100 100 100 100 100 100 100 100 100 100 100 100 100 100 100 100 100 100 100 100 100 100 100 96 99 100 100 100 100
100 100 100 100 100 100 100 100 100 100 100 100 100 100 100 100 100 100 100 100 100 100 100 100 100 100 100 100 100 100 100 100 100 98 86 100 100 100
100 100 100 100 100 100 100 100 100 100 100 100 100 100 100 100 100 100 100 100 100 100 100 100 100 100 100 100 100 100 100 100 100 92 100 100 100 98
100 100 100 100 100 100 100 100 100 100 100 100 100 100 100 100 100 100 100 100 100 100 100 100 100 100 99 95 100 100 100 100 100 100 100 100 100 83
100 100 100 100 100 100 100 100 100 100 100 100 100 100 100 100 100 100 100 100 100 100 100 100 100 100 93 100 100 100 100 100 100 100 100 100 100 100
100 100 100 100 100 100 100 100 100 100 100 100 100 100 100 100 100 100 100 100 100 100 100 100 100 100 100 100 66 93 50 98 96 82 100 76 100 100
100 100 100 100 100 100 100 100 100 100 100 100 100 100 100 100 100 100 100 100 100 100 100 100 74 100 88 98 16 6 5 62 43 24 99 90 100 96
100 100 100 100 100 100 100 100 100 100 100 100 100 100 100 100 100 100 100 100 100 76 97 99 29 49 7 98 99 60 42 71 94 90 96 97 29 93
100 100 100 100 100 100 100 100 100 100 100 100 100 100 100 100 100 100 100 100 100 100 100 100 86 39 70 68 48 96 100 63 26 100 75 81 98 93
100 100 100 100 100 100 100 100 100 100 100 100 100 100 100 100 100 100 100 77 80 97 99 90 22 22 35 30 47 54 8 65 0 5 7 96 100 100
100 100 100 100 100 100 100 100 100 100 100 100 100 100 100 100 93 97 37 23 5 5 50 6 31 14 7 5 68 95 44 5 5 35 6 5 97 100